Location: Unspecified
(0.0000°N, 0.0000°E)
Time: 10:26:25
(UTC+00:00)

Transit 2A - All Passes

Search period start: 28 May 2017 00:00
Search period end: 07 June 2017 00:00
Orbit: 601 x 959 km, 66.7° (Epoch: 27 May)

Date Brightness Start Highest point End Pass type
(mag) Time Alt. Az. Time Alt. Az. Time Alt. Az.
28 May - 01:16:18 10° NNW 01:22:00 64° WSW 01:28:11 10° S night (unlit)
28 May - 12:10:55 10° SSE 12:14:44 23° ESE 12:18:20 10° ENE daylight
28 May - 13:54:44 10° WSW 13:57:34 16° WNW 14:00:18 10° NNW daylight
29 May - 00:42:16 10° NNW 00:48:01 80° ENE 00:54:16 10° SSE night (unlit)
29 May - 11:38:28 10° SE 11:40:41 13° ESE 11:42:49 10° E daylight
29 May - 13:19:35 10° SW 13:23:39 28° WNW 13:27:28 10° NNW daylight
30 May - 00:08:32 10° N 00:14:04 50° ENE 00:20:03 10° SE night (unlit)
30 May - 01:54:18 10° W 01:57:14 14° WSW 02:00:16 10° SW night (unlit)
30 May - 12:45:04 10° SSW 12:49:44 51° WNW 12:54:02 10° N daylight
30 May - 23:35:07 10° N 23:40:08 31° ENE 23:45:29 10° SE night (unlit)
31 May - 01:18:39 10° WNW 01:23:10 23° WSW 01:27:55 10° SSW night (unlit)
31 May - 12:10:57 10° SSW 12:15:47 86° ESE 12:20:13 10° NNE daylight
31 May - 23:02:11 10° NNE 23:06:12 19° ENE 23:10:24 10° ESE night (unlit)
01 Jun - 00:43:48 10° NW 00:49:07 36° WSW 00:54:47 10° S night (unlit)
01 Jun - 11:37:10 10° S 11:41:48 46° ESE 11:46:04 10° NE daylight
01 Jun - 22:30:33 10° NE 22:32:15 11° ENE 22:33:59 10° E night (unlit)
02 Jun - 00:09:23 10° NNW 00:15:06 58° WSW 00:21:15 10° S night (unlit)
02 Jun - 11:03:47 10° SSE 11:07:47 26° ESE 11:11:31 10° NE daylight
02 Jun - 12:48:17 10° WSW 12:50:34 14° WNW 12:52:48 10° NW daylight
02 Jun - 23:35:17 10° NNW 23:41:06 89° NE 23:47:24 10° SSE night (unlit)
03 Jun - 10:31:04 10° SSE 10:33:43 15° ESE 10:36:16 10° ENE daylight
03 Jun - 12:12:52 10° SW 12:16:39 24° WNW 12:20:14 10° NNW daylight
03 Jun - 23:01:28 10° N 23:07:09 56° ENE 23:13:15 10° SSE night (unlit)
04 Jun - 00:48:01 10° W 00:50:21 12° WSW 00:52:43 10° SW night (unlit)
04 Jun - 11:38:13 10° SW 11:42:44 44° WNW 11:46:56 10° N daylight
04 Jun - 22:27:58 10° N 22:33:12 35° ENE 22:38:47 10° SE night (unlit)
05 Jun - 00:11:58 10° WNW 00:16:16 20° WSW 00:20:45 10° SSW night (unlit)
05 Jun - 11:04:01 10° SSW 11:08:47 82° WNW 11:13:12 10° NNE daylight
05 Jun - 21:54:53 10° NNE 21:59:16 22° ENE 22:03:52 10° ESE night (unlit)
05 Jun - 23:37:00 10° NW 23:42:13 32° WSW 23:47:45 10° S night (unlit)
06 Jun - 10:30:09 10° S 10:34:48 53° ESE 10:39:07 10° NNE daylight
06 Jun - 21:22:41 10° NE 21:25:19 13° ENE 21:28:02 10° E night (unlit)
06 Jun - 23:02:29 10° NW 23:08:12 51° WSW 23:14:17 10° S night (unlit)
